OBJECT X, 67269

Orbit data source: Space-Track

You're viewing an Uncataloged Satellite

Recently launched and/or uncataloged satellites may have evolving metadata. Metadata may include but not limited to: Owner, Maufacturer, Bus, Motor, and Mission.

OBJECT X, 67269 is a satellite in SSO that was launched on Sun, 28 Dec 2025 UTC via a SOYUZ-2-1B launch vehicle from the Vostochny Cosmodrome (VOSTO). Unknown objects in Earth's orbit typically refer to objects detected orbiting the Earth but have not yet been identified or cataloged. These objects could be anything from previously untracked satellites, spent rocket stages, debris from satellite collisions, or even natural meteoroids temporarily captured by Earth's gravity.

Loading next visibility...
Identifier
67269, 2025-313X
Orbit
SSO
Country
Flag of TBDTBD
Related business
None
Manufacturer
Unknown
Mission
Operational Commercial Imaging
Bus & Motor
Unknown
Mass
Unknown
Launch date (UTC)
2025-12-28 (6 months ago)
Launch vehicle
SOYUZ-2-1B
Launch site
Vostochny Cosmodrome (VOSTO)
Object type
Unknown
Shape & HBR
Box, 0.2 m
Radar Cross Section
0.100 m², Medium (>0.1 m² and < 1m²)

Expand to show TLE details & history
Last TLE update: 1 day ago

TLE from 1 day ago
0 OBJECT X
1 67269U 25313X   26170.72038467  .00009870  00000-0  39824-3 0  9990
2 67269  97.3960 245.6507 0013125 358.0347   2.0837 15.24923260 26357
Epoch: 2026-06-19T17:17Z
TLE epoch observation values (Epoch: 2026-06-19T17:17:21.235Z)
Latitude
-0.00002°
Longitude
78.36691°
Altitude
485.101 km
Speed
7.628 km/s
True Right ascension
16h 22m 36s
True Declination
0° 00' 00"
Sunlit
Object was in full shadow at epoch
Visualization orbit readout
Latitude
Unknown
Longitude
Unknown
Altitude
Unknown
Speed
Unknown
Apparent Right ascension
Unknown
Apparent Declination
Unknown
Sunlit
N/A
Visualization observer readout
Local Sidereal Time
07:15:31
Azimuth
Unknown
Elevation
Unknown
Doppler factor
Unknown
Orbital elements
Apogee altitude
496.986 km
Perigee altitude
478.963 km
Semi-major axis
6,866.112 km
Eccentricity
0.00131
Inclination
97.396°
RAAN
245.6507°
Arg. of periapsis
358.0347°
True anomaly
2.08918°
Mean anomaly
2.0837°
Eccentric anomaly
2.08644°
Mean motion
3.81484 °/min
Orbital period
94.37 mins
BSTAR
0.00039824
Loading maneuver chart data...
Computing Atmospheric mass density...
Loading historical data...
Loading historical data...
Loading historical data...
Loading historical data...
Loading historical data...
Loading historical data...
Loading historical data...

Documentation

Showing up to 5 results
|